Simultaneous Nadir Overpasses (SNOs) Predictions

Prediction of SNOs between AQUA and NOAA-19 Satellite Orbit:

Table of predicted SNOs for the next 14.0 days since TLE Epoch: 1/1/2016
Index Date (AQUA) Time (AQUA) Lat,Lon (AQUA) SZA (AQUA ) Date (NOAA-19) Time (NOAA-19) Lat,Lon (NOAA-19) SZA (NOAA-19 ) Distance(km) Time Diff (sec)
1 01/02/2016 23:29:19 -80.66, -29.32 74.62 01/02/2016 23:28:24 -80.66, -29.20 74.61 2.13 55
2 01/03/2016 00:18:44 80.62, 138.82 105.30 01/03/2016 00:19:18 80.62, 138.95 105.27 2.35 34
3 01/05/2016 05:03:02 80.66, 67.32 105.18 01/05/2016 05:02:31 80.66, 67.32 105.19 0.22 31
4 01/05/2016 05:52:27 -80.61,-124.52 74.92 01/05/2016 05:53:34 -80.62,-124.60 74.93 1.55 67
5 01/07/2016 10:36:45 -80.65, 163.91 75.06 01/07/2016 10:36:46 -80.65, 163.96 75.07 1.11 1
6 01/09/2016 15:21:02 -80.68, 92.59 75.29 01/09/2016 15:19:58 -80.68, 92.47 75.25 2.30 64
7 01/09/2016 16:10:27 80.64, -99.31 104.63 01/09/2016 16:10:53 80.64, -99.38 104.64 1.36 26
8 01/11/2016 20:54:44 80.67,-170.73 104.39 01/11/2016 20:54:05 80.67,-170.78 104.42 1.09 39
9 01/11/2016 21:44:09 -80.62, -2.54 75.71 01/11/2016 21:45:06 -80.62, -2.39 75.75 2.73 57




NCC Satellite Simultaneous Nadir Overpasses (SNOs) Prediction Service
